Regional Weather Roundup
Issued by NWS

Home | Current Version | Previous Version | Text Only | Print | Product List | Glossary Off
Versions: 1 2 3 4 5 6 7 8 9 10 11 12 13 14 15 16 17 18 19 20 21 22 23 24 25 26 27 28 29 30 31 32 33 34 35 36 37 38 39 40 41 42 43 44 45 46 47 48 49 50

000
ASUS43 KDMX 220606
RWRIA

WEATHER ROUNDUP FOR IOWA
NATIONAL WEATHER SERVICE DES MOINES IA
1200 AM CST THU FEB 22 2018

NOTE: "FAIR" INDICATES FEW OR NO CLOUDS BELOW 12,000 FEET WITH NO
SIGNIFICANT WEATHER AND/OR OBSTRUCTIONS TO VISIBILITY.

* - THESE STATIONS ARE NOT NWS STATIONS...THUS NOT UNDER NWS
QUALITY CONTROL.  THEY ALSO DO NOT REPORT WEATHER SUCH
AS PRECIPITATION OR FOG.

IAZ001>003-012>014-020>022-031>034-043>046-220700-
   NORTHWEST IOWA

CITY           SKY/WX    TMP DP  RH WIND       PRES   REMARKS
CARROLL *      CLOUDY    21  18  86 NE10      30.51F WCI  10
CHEROKEE *     MOCLDY    19  14  81 E3        30.53F
DENISON *      CLOUDY    19  16  86 NE9       30.52S WCI   9
LE MARS *      CLOUDY    18  12  79 E5        30.53F WCI  11
ORANGE CITY *  MOCLDY    18  14  86 CALM      30.51F
SHELDON *      CLOUDY    12  10  92 SE6       30.51S WCI   3
SIOUX CITY     CLOUDY    20  11  68 E6        30.53F WCI  12
6HR MIN TEMP:  18; 6HR MAX TEMP:  20;

SPENCER        MIX PCPN  15  10  80 E7        30.53F WCI   5
6HR MIN TEMP:  15; 6HR MAX TEMP:  19; 6HR PCP: TRACE;

STORM LAKE *   CLOUDY    18  12  79 E10       30.50F WCI   6
$$

IAZ055>058-069>071-079>083-090>094-220700-
   SOUTHWEST IOWA

CITY           SKY/WX    TMP DP  RH WIND       PRES   REMARKS
ATLANTIC *     MOCLDY    23  19  86 E8        30.51R WCI  14
AUDUBON *      CLOUDY    21  18  86 E9        30.51R WCI  11
CLARINDA *     CLOUDY    27  21  80 E7G15     30.52R WCI  19
COUNCIL BLFS * MOCLDY    23  19  86 NE7       30.51R WCI  15
CRESTON *      CLOUDY    23  19  86 E12       30.50R WCI  12
HARLAN  *      CLOUDY    21  19  93 NE8       30.55R WCI  12
LAMONI         CLOUDY    24  19  81 NE14      30.47F WCI  12
6HR MIN TEMP:  24; 6HR MAX TEMP:  25;

RED OAK *      CLOUDY    25  19  80 NE8       30.51R WCI  16
SHENANDOAH *   CLOUDY    27  19  74 NE9       30.51F WCI  17
$$

IAZ047>049-059>061-072>074-084-220700-
   CENTRAL IOWA

CITY           SKY/WX    TMP DP  RH WIND       PRES   REMARKS
AMES           CLOUDY    23  16  74 E10       30.54F WCI  12
6HR MIN TEMP:  22; 6HR MAX TEMP:  23;

ANKENY *       CLOUDY    23  18  80 NE12      30.55F WCI  12
BOONE *        CLOUDY    23  18  80 NE10      30.52F WCI  12
CHARITON *     CLOUDY    23  19  86 NE9       30.51S WCI  13
DES MOINES     CLOUDY    24  15  68 NE9       30.53F WCI  14
6HR MIN TEMP:  24; 6HR MAX TEMP:  24;

GRINNELL*      CLOUDY    24  18  80 NE13      30.54F WCI  12
KNOXVILLE *    CLOUDY    25  16  68 NE9       30.52S WCI  15
MARSHALLTOWN   CLOUDY    23  16  74 NE12      30.54F WCI  12
6HR MIN TEMP:  22; 6HR MAX TEMP:  23;

NEWTON *       CLOUDY    23  16  74 NE9       30.53F WCI  13
PELLA *        FAIR      24  18  79 NE6       30.55S WCI  17
PERRY *        CLOUDY    23  18  80 NE10      30.52F WCI  12
$$

IAZ004>006-015-016-023>025-035-036-220700-
   NORTH CENTRAL IOWA

CITY           SKY/WX    TMP DP  RH WIND       PRES   REMARKS
ALGONA *       FAIR      19 N/A N/A E6        30.55F WCI  11
CLARION *      CLOUDY    21  21 100 E12       30.56F WCI   9
ESTHERVILLE    FAIR      12   7  80 E8        30.54F WCI   0
6HR MIN TEMP:  12; 6HR MAX TEMP:  16;

FORT DODGE *   CLOUDY    20  16  84 E10       30.54F WCI   9
MASON CITY     CLOUDY    21  14  74 E7        30.59F WCI  12
6HR MIN TEMP:  20; 6HR MAX TEMP:  21;

FOREST CITY *  MOCLDY    21  18  86 CALM      30.57F
WEBSTER CITY * MOCLDY    21  16  79 E10       30.52F WCI  10
IOWA FALLS *   CLOUDY    23  17  79 E10       30.57F WCI  12
$$

IAZ007>011-017>019-026>030-037>042-050>054-066-220700-
   NORTHEAST IOWA

CITY           SKY/WX    TMP DP  RH WIND       PRES   REMARKS
CEDAR RAPIDS   FAIR      25  15  66 NE10      30.54F WCI  15
6HR MIN TEMP:  24; 6HR MAX TEMP:  26;

CHARLES CITY * CLOUDY    21  18  86 NE6       30.60S WCI  14
CLINTON *      FAIR      25  19  78 NE12      30.58S WCI  14
DECORAH *      CLOUDY    19  16  86 E5        30.60R WCI  13
DUBUQUE        CLOUDY    23  13  65 NE12      30.56F WCI  12
6HR MIN TEMP:  23; 6HR MAX TEMP:  24;

MONTICELLO *   CLOUDY    25  16  68 NE7       30.57F WCI  17
OELWEIN *      CLOUDY    23  19  86 NE9       30.58F WCI  13
WATERLOO       CLOUDY    23  15  71 NE9       30.58F WCI  13
6HR MIN TEMP:  21; 6HR MAX TEMP:  23;

$$

IAZ064-065-067-068-078-220700-
   EAST CENTRAL IOWA

CITY           SKY/WX    TMP DP  RH WIND       PRES   REMARKS
DAVENPORT      FAIR      27  18  69 NE10      30.57F WCI  17
6HR MIN TEMP:  27; 6HR MAX TEMP:  28;

IOWA CITY      FAIR      27  16  63 NE10      30.58S WCI  17
6HR MIN TEMP:  27; 6HR MAX TEMP:  28;

MT. PLEASANT * FAIR      27  21  80 NE9       30.53F WCI  17
MUSCATINE *    FAIR      28  19  69 NE13      30.56F WCI  18
QUAD CITIES    FAIR      27  19  72 NE10      30.55F WCI  17
6HR MIN TEMP:  27; 6HR MAX TEMP:  28;

$$

IAZ062-063-075>077-085>089-095>099-220700-
   SOUTHEAST IOWA

CITY           SKY/WX    TMP DP  RH WIND       PRES   REMARKS
BURLINGTON     FAIR      27  20  75 NE10      30.52F WCI  17
6HR MIN TEMP:  27; 6HR MAX TEMP:  28;

FAIRFIELD *    CLOUDY    27  18  69 NE12      30.52F WCI  16
FORT MADISON * CLOUDY    27  21  80 NE6       30.52F WCI  20
KEOKUK *       MOCLDY    28  23  80 NE9       30.51F WCI  20
OSKALOOSA *    MOCLDY    25  19  78 NE9       30.54R WCI  15
OTTUMWA        FAIR      26  17  68 NE10      30.52F WCI  16
6HR MIN TEMP:  26; 6HR MAX TEMP:  26;

WASHINGTON *   FAIR      27  23  86 NE14      30.55F WCI  15
$$

ABBREVIATIONS USED IN REMARKS
   TC - TEMPERATURES IN CELSIUS
  WCI - WIND CHILL INDEX
   HX - HEAT INDEX
  VSB - VISIBILITY
$$





USA.gov is the U.S. government's official web portal to all federal, state and local government web resources and services.